Puerto Banus, Marbella

>

This is an optional block (switch it off / on) in the settings - file ($SITE['banners'] = false;)

You can display ads, any other important text or photo’s using text / html or PHP code.

You can place one or more at the top and or bottom and it can all be different for content / size .



aviso para Tormentas more information blitzortung!


aviso para Luvia  rain snow radar


Visita nuestra red de sitios de meteo:

Documentation for the template used

MeteoibericaRed estaciones Meteorologicas

MeteoclimaticRed estaciones Meteorologicas



Lluvia Desde: 21-10-2018 11:00 Hasta: 16:59 Advertencias para: Lluvia Nivel: Rojo info button
Tormentas Desde: 21-10-2018 11:00 Hasta: 22:59 Advertencias para: Tormentas Nivel: Amarillo info button

Pagina Historial Weather Underground texto

Diario Resumen January 5, 2018 Unidades:  impérial    Métrico   Tanto
« Anterior Dia
Siguiente Dia »
Diario Semana Mensual Anual Personalizada
  Maxima: Minima: Media:
Temperatura: TemperatureC °F 10.2 °F 14.3 °F
Punto de rocío: DewpointC °F 7.0 °F 9.6 °F
Humedad: Humidity % 54 % 74 %
Velocidad del Viento: WindSpeedKMH mph 1.9 mph 17 mph
Ráfagas de viento: WindSpeedGustKMH mph - -
Viento:- - WNW
Pression baro: PressurehPa in 1007.3 in -
Précipitaciones: 0.0 in    
Historical Graphs
 
 
Datos de tabla para January 5, 2018
Tiempo Temperatura Punto de rocío Pression baro Viento Velocidad del Viento Ráfagas de viento Humedad Las precipitaciones Rate ( Hora )
TemperatureC °F DewpointC °F PressurehPa in Calm     Humidity % HourlyPrecipMM in
00:00 13.3 °F 9.8 °F 1022.6 in NNW 9.3 mph 9.3 mph 79 % 0.0 in
00:07 13.4 °F 9.8 °F 1022.6 in NNW 8.0 mph 8.0 mph 79 % 0.0 in
00:08 13.4 °F 9.8 °F 1022.6 in NNW 8.0 mph 8.0 mph 79 % 0.0 in
00:13 13.3 °F 9.8 °F 1022.6 in North 9.3 mph 9.3 mph 79 % 0.0 in
00:15 13.3 °F 9.8 °F 1022.6 in North 7.4 mph 7.4 mph 79 % 0.0 in
00:17 13.3 °F 9.8 °F 1022.6 in North 7.4 mph 7.4 mph 79 % 0.0 in
00:22 13.3 °F 9.8 °F 1022.6 in NNW 11.1 mph 11.1 mph 79 % 0.0 in
00:27 13.4 °F 9.9 °F 1022.2 in NNW 7.4 mph 7.4 mph 79 % 0.0 in
00:32 13.4 °F 9.9 °F 1022.2 in North 8.0 mph 8.0 mph 79 % 0.0 in
00:34 13.4 °F 9.9 °F 1022.2 in North 5.6 mph 5.6 mph 79 % 0.0 in
00:39 13.3 °F 9.8 °F 1022.2 in NNW 7.4 mph 7.4 mph 79 % 0.0 in
00:40 13.3 °F 9.8 °F 1022.2 in NNW 7.4 mph 7.4 mph 79 % 0.0 in
00:45 13.3 °F 9.8 °F 1022.2 in NNW 5.6 mph 5.6 mph 79 % 0.0 in
00:47 13.3 °F 9.8 °F 1021.9 in NNW 5.6 mph 5.6 mph 79 % 0.0 in
00:52 13.3 °F 9.8 °F 1021.9 in NNW 7.4 mph 7.4 mph 79 % 0.0 in
00:54 13.4 °F 9.8 °F 1021.9 in NNW 5.6 mph 5.6 mph 79 % 0.0 in
00:59 13.4 °F 9.8 °F 1021.9 in NNW 5.6 mph 5.6 mph 79 % 0.0 in
01:02 13.4 °F 9.8 °F 1021.9 in NNW 7.4 mph 7.4 mph 79 % 0.0 in
01:07 13.3 °F 9.8 °F 1021.9 in NNW 5.6 mph 5.6 mph 79 % 0.0 in
01:12 13.3 °F 9.6 °F 1021.6 in NNW 5.6 mph 5.6 mph 78 % 0.0 in
01:14 13.3 °F 9.5 °F 1021.6 in NNW 7.4 mph 7.4 mph 78 % 0.0 in
01:16 13.3 °F 9.5 °F 1021.6 in NNW 8.0 mph 8.0 mph 78 % 0.0 in
01:22 13.2 °F 9.4 °F 1021.6 in NNW 8.0 mph 8.0 mph 78 % 0.0 in
01:26 13.1 °F 9.6 °F 1021.6 in North 8.0 mph 8.0 mph 79 % 0.0 in
01:31 13.0 °F 9.4 °F 1021.2 in North 5.6 mph 6.1 mph 79 % 0.0 in
01:33 12.9 °F 9.4 °F 1021.2 in North 8.0 mph 8.0 mph 79 % 0.0 in
01:40 12.8 °F 9.4 °F 1021.2 in North 9.3 mph 9.3 mph 80 % 0.0 in
01:45 12.8 °F 9.4 °F 1021.2 in North 9.3 mph 9.3 mph 80 % 0.0 in
01:47 12.7 °F 9.3 °F 1020.9 in North 7.4 mph 7.4 mph 80 % 0.0 in
01:52 12.7 °F 9.3 °F 1020.9 in North 9.7 mph 9.7 mph 80 % 0.0 in
01:55 12.6 °F 9.2 °F 1020.5 in North 9.3 mph 9.3 mph 80 % 0.0 in
01:58 12.6 °F 9.2 °F 1020.5 in North 9.3 mph 9.3 mph 80 % 0.0 in
02:03 12.6 °F 9.2 °F 1020.5 in North 11.1 mph 11.1 mph 80 % 0.0 in
02:05 12.6 °F 9.2 °F 1020.5 in North 9.3 mph 9.3 mph 80 % 0.0 in
02:10 12.5 °F 9.2 °F 1020.5 in North 5.6 mph 5.8 mph 80 % 0.0 in
02:11 12.5 °F 9.2 °F 1020.5 in North 8.0 mph 8.0 mph 80 % 0.0 in
02:16 12.4 °F 9.2 °F 1020.5 in North 9.7 mph 9.7 mph 81 % 0.0 in
02:21 12.3 °F 9.2 °F 1020.2 in North 9.3 mph 9.3 mph 81 % 0.0 in
02:25 12.3 °F 9.1 °F 1020.2 in North 9.3 mph 9.3 mph 81 % 0.0 in
02:30 12.2 °F 9.1 °F 1020.2 in North 9.7 mph 9.7 mph 81 % 0.0 in
02:31 12.2 °F 9.1 °F 1020.2 in North 9.7 mph 9.7 mph 81 % 0.0 in
02:36 12.2 °F 9.0 °F 1019.9 in NNW 9.3 mph 9.3 mph 81 % 0.0 in
02:39 12.2 °F 9.0 °F 1019.9 in NNW 9.3 mph 9.3 mph 81 % 0.0 in
02:44 12.2 °F 9.1 °F 1019.9 in North 9.3 mph 9.3 mph 81 % 0.0 in
02:45 12.2 °F 9.1 °F 1019.9 in NNW 8.0 mph 8.0 mph 81 % 0.0 in
02:49 12.2 °F 9.1 °F 1019.9 in North 11.3 mph 11.3 mph 81 % 0.0 in
02:54 12.2 °F 9.0 °F 1019.9 in North 11.1 mph 11.1 mph 81 % 0.0 in
02:55 12.2 °F 9.0 °F 1019.9 in North 8.0 mph 11.3 mph 81 % 0.0 in
02:57 12.1 °F 8.9 °F 1019.9 in North 11.1 mph 11.1 mph 81 % 0.0 in
03:02 12.1 °F 8.9 °F 1019.9 in North 9.3 mph 9.3 mph 81 % 0.0 in
03:04 12.0 °F 8.8 °F 1019.9 in North 9.3 mph 9.3 mph 81 % 0.0 in
03:06 12.0 °F 8.8 °F 1019.9 in North 11.1 mph 11.1 mph 81 % 0.0 in
03:11 11.9 °F 8.8 °F 1019.9 in NNW 7.4 mph 7.4 mph 81 % 0.0 in
03:14 12.0 °F 8.8 °F 1019.5 in NNW 9.3 mph 9.3 mph 81 % 0.0 in
03:19 12.0 °F 8.8 °F 1019.5 in NNW 6.4 mph 6.4 mph 81 % 0.0 in
03:23 12.0 °F 8.8 °F 1019.5 in NNW 9.7 mph 9.7 mph 81 % 0.0 in
03:28 12.1 °F 8.9 °F 1019.5 in NNW 9.3 mph 9.3 mph 81 % 0.0 in
03:31 12.1 °F 8.9 °F 1019.2 in North 9.3 mph 9.3 mph 81 % 0.0 in
03:36 12.0 °F 8.8 °F 1019.5 in North 11.1 mph 11.1 mph 81 % 0.0 in
03:41 11.9 °F 8.7 °F 1019.5 in NNW 7.4 mph 7.4 mph 81 % 0.0 in
03:46 11.8 °F 8.7 °F 1019.2 in North 11.1 mph 11.1 mph 81 % 0.0 in
03:49 11.8 °F 8.6 °F 1019.2 in NNW 13.0 mph 13.0 mph 81 % 0.0 in
03:53 11.7 °F 8.6 °F 1019.2 in North 11.1 mph 11.1 mph 81 % 0.0 in
03:54 11.7 °F 8.6 °F 1019.2 in NNW 9.3 mph 9.3 mph 81 % 0.0 in
03:59 11.7 °F 8.5 °F 1019.2 in NNW 9.3 mph 9.3 mph 81 % 0.0 in
04:00 11.7 °F 8.5 °F 1019.2 in NNW 11.1 mph 11.1 mph 81 % 0.0 in
04:05 11.7 °F 8.5 °F 1019.2 in North 9.3 mph 9.3 mph 81 % 0.0 in
04:09 11.6 °F 8.4 °F 1019.2 in NNW 9.3 mph 9.3 mph 81 % 0.0 in
04:14 11.7 °F 8.7 °F 1019.2 in NW 5.6 mph 5.6 mph 82 % 0.0 in
04:19 11.7 °F 8.7 °F 1019.2 in NW 4.8 mph 4.8 mph 82 % 0.0 in
04:25 11.7 °F 8.7 °F 1019.2 in NW 5.6 mph   82 % 0.0 in
04:30 11.8 °F 8.8 °F 1019.2 in NW 6.4 mph 6.4 mph 82 % 0.0 in
04:31 11.8 °F 8.6 °F 1019.2 in NW 7.4 mph 7.4 mph 81 % 0.0 in
04:34 11.8 °F 8.7 °F 1019.2 in NNW 8.0 mph 8.0 mph 81 % 0.0 in
04:39 12.0 °F 8.8 °F 1019.2 in NNW 5.6 mph 5.6 mph 81 % 0.0 in
04:40 12.0 °F 8.8 °F 1019.2 in NNW 5.6 mph 5.6 mph 81 % 0.0 in
04:45 12.2 °F 8.8 °F 1018.8 in NNW 5.6 mph 5.6 mph 80 % 0.0 in
04:50 12.3 °F 8.9 °F 1018.8 in NNW 5.6 mph 5.6 mph 80 % 0.0 in
04:55 12.3 °F 8.7 °F 1018.8 in NNW 5.6 mph 5.6 mph 79 % 0.0 in
04:58 12.3 °F 8.7 °F 1018.8 in NNW 5.6 mph 5.6 mph 79 % 0.0 in
05:03 12.3 °F 8.6 °F 1018.8 in NNW 5.6 mph 5.6 mph 78 % 0.0 in
05:04 12.4 °F 8.7 °F 1018.8 in NNW 5.6 mph 5.6 mph 78 % 0.0 in
05:09 12.3 °F 8.6 °F 1018.8 in NNW 5.6 mph 5.6 mph 78 % 0.0 in
05:10 12.3 °F 8.6 °F 1018.8 in NNW 5.6 mph 5.6 mph 78 % 0.0 in
05:15 12.2 °F 8.3 °F 1018.8 in NNW 7.4 mph 7.4 mph 77 % 0.0 in
05:17 12.2 °F 8.3 °F 1018.8 in NNW 7.4 mph 7.4 mph 77 % 0.0 in
05:21 12.1 °F 8.3 °F 1018.8 in NNW 6.4 mph 6.4 mph 78 % 0.0 in
05:26 12.0 °F 8.3 °F 1018.5 in NNW 5.6 mph 5.6 mph 78 % 0.0 in
05:27 12.0 °F 8.3 °F 1018.5 in NNW 5.6 mph 5.6 mph 78 % 0.0 in
05:30 11.9 °F 8.2 °F 1018.8 in NNW 5.6 mph 5.6 mph 78 % 0.0 in
05:32 11.8 °F 8.1 °F 1018.8 in NNW 6.4 mph 6.4 mph 78 % 0.0 in
05:37 11.7 °F 7.9 °F 1018.8 in NW 8.0 mph 8.0 mph 78 % 0.0 in
05:38 11.7 °F 7.9 °F 1018.8 in NW 8.0 mph 8.0 mph 78 % 0.0 in
05:42 11.7 °F 8.0 °F 1018.8 in NNW 8.0 mph 8.0 mph 78 % 0.0 in
05:44 11.7 °F 7.9 °F 1018.5 in NNW 7.4 mph 7.4 mph 78 % 0.0 in
05:47 11.4 °F 7.7 °F 1018.5 in NNW 9.3 mph 9.3 mph 78 % 0.0 in
05:49 11.3 °F 7.6 °F 1018.5 in NNW 11.3 mph 11.3 mph 78 % 0.0 in
05:54 10.9 °F 7.4 °F 1018.5 in North 9.7 mph 9.7 mph 79 % 0.0 in
05:59 10.7 °F 7.4 °F 1018.5 in NNW 5.6 mph 5.6 mph 80 % 0.0 in
06:00 10.7 °F 7.6 °F 1018.5 in NNW 6.4 mph 6.4 mph 81 % 0.0 in
06:05 10.7 °F 7.6 °F 1018.5 in NNW 11.1 mph 11.1 mph 81 % 0.0 in
06:06 10.7 °F 7.6 °F 1018.5 in NNW 11.1 mph 11.1 mph 81 % 0.0 in
06:11 10.7 °F 7.6 °F 1018.5 in NNW 9.3 mph 9.3 mph 81 % 0.0 in
06:15 10.7 °F 7.6 °F 1018.5 in NNW 6.4 mph 6.4 mph 81 % 0.0 in
06:20 10.7 °F 7.6 °F 1018.5 in NNW 6.4 mph 6.4 mph 81 % 0.0 in
06:25 10.6 °F 7.4 °F 1018.5 in North 9.3 mph 9.3 mph 81 % 0.0 in
06:27 10.5 °F 7.4 °F 1018.5 in North 9.7 mph 9.7 mph 81 % 0.0 in
06:32 10.4 °F 7.4 °F 1018.5 in NNW 11.1 mph 11.1 mph 82 % 0.0 in
06:36 10.4 °F 7.4 °F 1018.5 in North 13.0 mph 13.0 mph 82 % 0.0 in
06:38 10.4 °F 7.4 °F 1018.5 in North 11.1 mph 11.1 mph 82 % 0.0 in
06:39 10.3 °F 7.4 °F 1018.5 in North 9.3 mph 9.3 mph 82 % 0.0 in
06:42 10.3 °F 7.4 °F 1018.5 in North 11.1 mph 11.1 mph 82 % 0.0 in
06:47 10.2 °F 7.3 °F 1018.5 in NNW 13.0 mph 13.0 mph 82 % 0.0 in
06:52 10.3 °F 7.3 °F 1018.5 in NNW 7.4 mph 7.4 mph 82 % 0.0 in
06:57 10.3 °F 7.4 °F 1018.5 in NNW 7.4 mph 7.4 mph 82 % 0.0 in
06:58 10.3 °F 7.4 °F 1018.5 in NNW 8.0 mph 8.0 mph 82 % 0.0 in
07:03 10.4 °F 7.5 °F 1018.5 in NNW 9.7 mph 9.7 mph 82 % 0.0 in
07:04 10.4 °F 7.5 °F 1018.5 in NNW 9.3 mph 9.3 mph 82 % 0.0 in
07:09 10.5 °F 7.6 °F 1018.5 in NNW 6.4 mph 6.4 mph 82 % 0.0 in
07:10 10.5 °F 7.6 °F 1018.5 in NNW 5.6 mph 5.6 mph 82 % 0.0 in
07:15 10.6 °F 7.4 °F 1018.5 in NNW 5.6 mph 5.6 mph 81 % 0.0 in
07:19 10.6 °F 7.4 °F 1018.8 in NNW 6.4 mph 6.4 mph 81 % 0.0 in
07:24 10.6 °F 7.5 °F 1018.8 in NNW 6.4 mph 6.4 mph 81 % 0.0 in
07:29 10.6 °F 7.5 °F 1018.8 in WNW 5.6 mph 5.6 mph 81 % 0.0 in
07:32 10.6 °F 7.5 °F 1018.8 in WNW 3.7 mph 3.7 mph 81 % 0.0 in
07:35 10.4 °F 7.2 °F 1018.8 in NW 3.7 mph 3.7 mph 80 % 0.0 in
07:40 10.4 °F 7.3 °F 1018.8 in NW 3.7 mph 3.7 mph 81 % 0.0 in
07:42 10.3 °F 7.2 °F 1018.8 in NW 5.6 mph 5.6 mph 81 % 0.0 in
07:43 10.3 °F 7.2 °F 1018.8 in NW 5.6 mph 5.6 mph 81 % 0.0 in
07:48 10.3 °F 7.2 °F 1018.5 in NW 5.6 mph 5.6 mph 81 % 0.0 in
07:53 10.4 °F 7.3 °F 1018.5 in North 11.1 mph 11.1 mph 81 % 0.0 in
07:55 10.4 °F 7.2 °F 1018.5 in NNW 9.3 mph 9.3 mph 80 % 0.0 in
08:00 10.4 °F 7.2 °F 1018.5 in NNW 11.1 mph 11.1 mph 80 % 0.0 in
08:04 10.4 °F 7.2 °F 1018.5 in North 5.6 mph 5.6 mph 80 % 0.0 in
08:06 10.4 °F 7.2 °F 1018.5 in North 8.0 mph 8.0 mph 80 % 0.0 in
08:11 10.3 °F 7.0 °F 1018.5 in NNW 11.1 mph 11.1 mph 80 % 0.0 in
08:16 10.2 °F 7.1 °F 1018.5 in NW 13.0 mph 13.0 mph 81 % 0.0 in
08:17 10.2 °F 7.1 °F 1018.5 in NNW 11.1 mph 11.1 mph 81 % 0.0 in
08:22 10.2 °F 7.1 °F 1018.5 in North 13.0 mph 13.0 mph 81 % 0.0 in
08:23 10.2 °F 7.1 °F 1018.5 in North 14.8 mph 14.8 mph 81 % 0.0 in
08:25 10.2 °F 7.1 °F 1018.5 in North 11.1 mph 11.1 mph 81 % 0.0 in
08:30 10.3 °F 7.2 °F 1018.5 in North 14.8 mph 14.8 mph 81 % 0.0 in
08:31 10.2 °F 7.1 °F 1018.5 in North 14.8 mph 14.8 mph 81 % 0.0 in
08:36 10.2 °F 7.1 °F 1018.5 in North 14.8 mph 14.8 mph 81 % 0.0 in
08:41 10.3 °F 7.2 °F 1018.5 in NNW 14.8 mph 14.8 mph 81 % 0.0 in
08:46 10.3 °F 7.2 °F 1018.5 in North 14.8 mph 14.8 mph 81 % 0.0 in
08:49 10.4 °F 7.3 °F 1018.5 in North 14.8 mph 14.8 mph 81 % 0.0 in
08:52 10.4 °F 7.3 °F 1018.5 in WNW 13.0 mph 13.0 mph 81 % 0.0 in
08:57 10.6 °F 7.5 °F 1018.2 in North 17.7 mph 17.7 mph 81 % 0.0 in
09:02 11.4 °F 8.2 °F 1018.2 in NNW 11.1 mph 11.1 mph 81 % 0.0 in
09:03 11.4 °F 8.2 °F 1018.2 in NNW 7.4 mph 7.4 mph 81 % 0.0 in
09:08 11.7 °F 8.2 °F 1018.2 in NNW 8.0 mph 8.0 mph 79 % 0.0 in
09:10 11.8 °F 8.3 °F 1018.5 in North 13.0 mph 13.0 mph 79 % 0.0 in
09:14 11.9 °F 8.2 °F 1018.5 in NNW 5.6 mph 5.6 mph 78 % 0.0 in
09:18 12.1 °F 8.3 °F 1018.5 in NNW 6.4 mph 6.4 mph 78 % 0.0 in
09:20 12.1 °F 8.3 °F 1018.5 in NNW 11.1 mph 11.1 mph 78 % 0.0 in
09:24 12.2 °F 8.3 °F 1018.5 in North 9.7 mph 9.7 mph 77 % 0.0 in
09:26 12.2 °F 8.1 °F 1018.2 in North 11.1 mph 11.1 mph 76 % 0.0 in
09:30 12.1 °F 7.8 °F 1018.2 in NNW 11.1 mph 11.1 mph 75 % 0.0 in
09:32 12.1 °F 7.9 °F 1018.5 in North 16.7 mph 16.7 mph 76 % 0.0 in
09:35 11.8 °F 7.6 °F 1018.2 in North 13.0 mph 13.0 mph 75 % 0.0 in
09:40 11.9 °F 7.8 °F 1018.5 in NNW 9.3 mph 9.3 mph 76 % 0.0 in
09:43 12.1 °F 7.9 °F 1018.5 in North 9.3 mph 9.3 mph 76 % 0.0 in
09:48 12.3 °F 8.2 °F 1018.5 in North 11.1 mph 11.1 mph 76 % 0.0 in
09:50 12.4 °F 8.3 °F 1018.5 in North 5.6 mph 5.6 mph 76 % 0.0 in
09:51 12.5 °F 8.4 °F 1018.2 in NNW 5.6 mph 5.6 mph 76 % 0.0 in
09:55 12.7 °F 8.4 °F 1018.2 in North 9.3 mph 9.3 mph 75 % 0.0 in
10:00 12.9 °F 8.6 °F 1018.2 in North 3.7 mph 3.7 mph 75 % 0.0 in
10:05 13.2 °F 8.8 °F 1018.2 in North 5.6 mph 5.6 mph 75 % 0.0 in
10:06 13.2 °F 8.9 °F 1018.2 in North 6.4 mph 6.4 mph 75 % 0.0 in
10:12 13.4 °F 8.7 °F 1018.2 in NNE 9.3 mph 9.3 mph 73 % 0.0 in
10:17 13.4 °F 8.7 °F 1018.2 in NNE 3.7 mph 3.7 mph 73 % 0.0 in
10:22 13.7 °F 8.9 °F 1018.2 in NNE 1.9 mph 1.9 mph 73 % 0.0 in
10:27 14.0 °F 9.2 °F 1018.2 in NNE 5.6 mph 5.6 mph 73 % 0.0 in
10:28 14.1 °F 9.3 °F 1018.2 in NNE 5.6 mph 5.6 mph 73 % 0.0 in
10:31 14.1 °F 9.1 °F 1018.2 in NE 9.3 mph 9.3 mph 72 % 0.0 in
10:36 14.2 °F 9.4 °F 1017.8 in NE 7.4 mph 7.4 mph 73 % 0.0 in
10:37 14.3 °F 9.5 °F 1017.8 in NE 5.6 mph 5.6 mph 73 % 0.0 in
10:42 14.6 °F 10.0 °F 1017.8 in NW 11.1 mph 11.1 mph 74 % 0.0 in
10:47 15.1 °F 10.1 °F 1017.8 in West 27.8 mph 27.8 mph 72 % 0.0 in
10:50 15.6 °F 10.2 °F 1017.8 in West 20.9 mph 20.9 mph 70 % 0.0 in
10:51 15.8 °F 10.3 °F 1017.8 in West 17.7 mph 17.7 mph 70 % 0.0 in
10:56 16.4 °F 10.2 °F 1017.8 in WSW 14.8 mph 14.8 mph 67 % 0.0 in
10:57 16.4 °F 10.3 °F 1017.8 in West 14.5 mph 14.5 mph 67 % 0.0 in
11:02 16.7 °F 10.1 °F 1017.8 in WSW 19.3 mph 19.3 mph 65 % 0.0 in
11:07 16.9 °F 10.1 °F 1017.8 in WSW 24.1 mph 24.1 mph 64 % 0.0 in
11:08 16.9 °F 10.1 °F 1017.8 in WSW 27.8 mph 27.8 mph 64 % 0.0 in
11:10 17.0 °F 9.9 °F 1017.8 in WSW 24.1 mph 24.1 mph 63 % 0.0 in
11:13 17.1 °F 9.9 °F 1017.8 in WSW 14.8 mph 14.8 mph 63 % 0.0 in
11:16 17.1 °F 10.0 °F 1017.5 in WSW 22.2 mph 22.2 mph 63 % 0.0 in
11:21 17.2 °F 10.1 °F 1017.5 in WSW 27.8 mph 27.8 mph 63 % 0.0 in
11:26 17.1 °F 10.5 °F 1017.5 in WSW 27.8 mph 27.8 mph 65 % 0.0 in
11:31 16.8 °F 11.1 °F 1017.5 in WSW 22.2 mph 22.2 mph 69 % 0.0 in
11:33 16.7 °F 10.8 °F 1017.5 in West 24.1 mph 24.1 mph 68 % 0.0 in
11:36 16.7 °F 10.5 °F 1017.5 in West 19.3 mph 19.3 mph 67 % 0.0 in
11:41 17.0 °F 9.9 °F 1017.5 in SW 25.9 mph 25.9 mph 63 % 0.0 in
11:46 17.3 °F 9.9 °F 1017.2 in WSW 27.8 mph 27.8 mph 62 % 0.0 in
11:47 17.3 °F 9.7 °F 1017.2 in West 25.9 mph 25.9 mph 61 % 0.0 in
11:51 17.4 °F 10.1 °F 1017.2 in West 25.9 mph 25.9 mph 62 % 0.0 in
11:57 17.3 °F 10.6 °F 1017.2 in WSW 25.7 mph 25.7 mph 65 % 0.0 in
11:58 17.2 °F 10.6 °F 1017.2 in WSW 29.0 mph 29.0 mph 65 % 0.0 in
11:59 17.2 °F 10.3 °F 1016.8 in West 29.6 mph 29.6 mph 64 % 0.0 in
12:04 17.1 °F 10.7 °F 1016.8 in WSW 29.6 mph 29.6 mph 66 % 0.0 in
12:05 17.1 °F 10.7 °F 1016.8 in West 24.1 mph 24.1 mph 66 % 0.0 in
12:06 17.0 °F 10.6 °F 1016.8 in WSW 24.1 mph 24.1 mph 66 % 0.0 in
12:11 17.1 °F 10.5 °F 1016.5 in West 22.2 mph 22.2 mph 65 % 0.0 in
12:16 17.4 °F 10.1 °F 1016.5 in West 22.2 mph 22.2 mph 62 % 0.0 in
12:17 17.6 °F 9.9 °F 1016.5 in WNW 22.2 mph 22.2 mph 61 % 0.0 in
12:21 17.7 °F 10.1 °F 1016.1 in WNW 22.2 mph 22.2 mph 61 % 0.0 in
12:25 17.7 °F 9.8 °F 1016.1 in West 31.5 mph 31.5 mph 60 % 0.0 in
12:31 17.7 °F 9.6 °F 1015.8 in WNW 13.0 mph 13.0 mph 59 % 0.0 in
12:32 17.8 °F 9.7 °F 1015.8 in WSW 12.9 mph 12.9 mph 59 % 0.0 in
12:37 17.8 °F 9.4 °F 1015.8 in WNW 22.2 mph 22.2 mph 58 % 0.0 in
12:39 17.8 °F 9.4 °F 1015.8 in West 18.5 mph 18.5 mph 58 % 0.0 in
12:41 17.8 °F 9.4 °F 1015.8 in West 22.2 mph 22.2 mph 58 % 0.0 in
12:44 17.8 °F 9.4 °F 1015.8 in WSW 18.5 mph 18.5 mph 58 % 0.0 in
12:49 17.8 °F 9.4 °F 1015.5 in West 14.8 mph 14.8 mph 58 % 0.0 in
12:54 18.0 °F 9.6 °F 1015.5 in West 13.0 mph 13.0 mph 58 % 0.0 in
12:57 18.1 °F 9.4 °F 1015.1 in WNW 20.9 mph 20.9 mph 57 % 0.0 in
13:00 18.2 °F 9.2 °F 1015.1 in West 24.1 mph 24.1 mph 56 % 0.0 in
13:02 18.2 °F 9.2 °F 1015.1 in WNW 24.1 mph 24.1 mph 56 % 0.0 in
13:07 18.2 °F 9.3 °F 1015.1 in WNW 25.9 mph 25.9 mph 56 % 0.0 in
13:10 18.2 °F 9.3 °F 1014.8 in West 13.0 mph 13.0 mph 56 % 0.0 in
13:13 18.2 °F 9.0 °F 1014.8 in West 20.4 mph 20.6 mph 55 % 0.0 in
13:18 18.3 °F 9.1 °F 1014.8 in West 16.7 mph 16.7 mph 55 % 0.0 in
13:23 18.3 °F 8.8 °F 1014.4 in West 24.1 mph 24.1 mph 54 % 0.0 in
13:28 18.3 °F 9.1 °F 1014.4 in West 24.1 mph 24.1 mph 55 % 0.0 in
13:33 18.3 °F 9.1 °F 1014.4 in West 22.2 mph 22.2 mph 55 % 0.0 in
13:35 18.4 °F 9.2 °F 1014.1 in West 20.4 mph 20.4 mph 55 % 0.0 in
13:36 18.4 °F 9.2 °F 1014.1 in West 20.4 mph 20.4 mph 55 % 0.0 in
13:41 18.4 °F 9.2 °F 1014.1 in WSW 24.1 mph 24.1 mph 55 % 0.0 in
13:46 18.4 °F 9.2 °F 1014.1 in West 18.5 mph 18.5 mph 55 % 0.0 in
13:51 18.5 °F 9.0 °F 1014.1 in WSW 20.9 mph 20.9 mph 54 % 0.0 in
13:53 18.5 °F 9.3 °F 1013.8 in WSW 31.5 mph 31.5 mph 55 % 0.0 in
13:54 18.5 °F 9.3 °F 1013.8 in WSW 31.5 mph 31.5 mph 55 % 0.0 in
13:59 18.4 °F 9.7 °F 1013.8 in WSW 24.1 mph 24.1 mph 57 % 0.0 in
14:04 18.4 °F 9.7 °F 1013.4 in WSW 18.5 mph 18.5 mph 57 % 0.0 in
14:08 18.3 °F 9.4 °F 1013.4 in West 27.8 mph 27.8 mph 56 % 0.0 in
14:12 18.4 °F 9.7 °F 1013.4 in West 25.9 mph 25.9 mph 57 % 0.0 in
14:17 18.3 °F 9.6 °F 1013.1 in WSW 29.6 mph 29.6 mph 57 % 0.0 in
14:20 18.1 °F 9.7 °F 1013.1 in West 37.0 mph 37.0 mph 58 % 0.0 in
14:25 17.9 °F 9.8 °F 1013.1 in WSW 33.3 mph 33.3 mph 59 % 0.0 in
14:30 17.6 °F 9.7 °F 1013.1 in West 38.9 mph 38.9 mph 60 % 0.0 in
14:33 17.5 °F 9.9 °F 1013.1 in West 37.0 mph 37.0 mph 61 % 0.0 in
14:36 17.5 °F 9.9 °F 1013.1 in WSW 35.2 mph 35.2 mph 61 % 0.0 in
14:40 17.6 °F 9.7 °F 1012.8 in West 27.8 mph 27.8 mph 60 % 0.0 in
14:45 18.0 °F 9.6 °F 1012.8 in West 31.5 mph 31.5 mph 58 % 0.0 in
14:50 18.3 °F 9.4 °F 1012.8 in WSW 24.1 mph 24.1 mph 56 % 0.0 in
14:55 18.5 °F 9.6 °F 1012.4 in West 20.9 mph 20.9 mph 56 % 0.0 in
14:59 18.7 °F 9.7 °F 1012.4 in West 18.5 mph 18.5 mph 56 % 0.0 in
15:04 18.7 °F 9.5 °F 1012.4 in NW 27.8 mph 27.8 mph 55 % 0.0 in
15:08 18.7 °F 9.4 °F 1012.4 in West 18.5 mph 18.5 mph 55 % 0.0 in
15:09 18.7 °F 9.4 °F 1012.4 in West 20.4 mph 20.4 mph 55 % 0.0 in
15:15 18.5 °F 9.3 °F 1012.1 in West 19.3 mph 25.7 mph 55 % 0.0 in
15:16 18.4 °F 9.2 °F 1012.4 in WSW 35.2 mph 35.2 mph 55 % 0.0 in
15:22 18.3 °F 9.3 °F 1012.1 in West 22.2 mph 22.2 mph 56 % 0.0 in
15:27 18.3 °F 9.1 °F 1012.1 in West 18.5 mph 18.5 mph 55 % 0.0 in
15:32 18.5 °F 9.6 °F 1012.1 in West 31.5 mph 31.5 mph 56 % 0.0 in
15:34 18.4 °F 10.0 °F 1012.1 in WSW 31.5 mph 31.5 mph 58 % 0.0 in
15:39 17.8 °F 9.9 °F 1012.1 in WSW 31.5 mph 31.5 mph 60 % 0.0 in
15:40 17.8 °F 10.2 °F 1012.1 in WSW 25.9 mph 25.9 mph 61 % 0.0 in
15:46 17.4 °F 11.0 °F 1012.1 in West 33.3 mph 33.3 mph 66 % 0.0 in
15:51 16.9 °F 11.4 °F 1012.1 in WSW 30.6 mph 30.6 mph 70 % 0.0 in
15:55 16.8 °F 11.5 °F 1012.4 in WSW 38.6 mph 38.6 mph 71 % 0.0 in
16:03 16.5 °F 11.8 °F 1012.1 in WSW 33.3 mph 33.3 mph 74 % 0.0 in
16:08 16.3 °F 11.6 °F 1012.1 in WSW 37.0 mph 37.0 mph 74 % 0.0 in
16:13 16.3 °F 11.7 °F 1012.1 in SW 38.9 mph 38.9 mph 74 % 0.0 in
16:18 16.3 °F 11.7 °F 1012.1 in WSW 42.6 mph 42.6 mph 74 % 0.0 in
16:23 16.2 °F 11.6 °F 1012.1 in WSW 40.7 mph 40.7 mph 74 % 0.0 in
16:24 16.2 °F 11.8 °F 1012.1 in West 35.2 mph 35.2 mph 75 % 0.0 in
16:29 16.1 °F 11.7 °F 1012.1 in West 40.7 mph 40.7 mph 75 % 0.0 in
16:35 16.1 °F 11.7 °F 1011.7 in WSW 27.4 mph 46.7 mph 75 % 0.0 in
16:40 16.1 °F 11.7 °F 1011.7 in WSW 33.3 mph 33.3 mph 75 % 0.0 in
16:45 16.2 °F 11.7 °F 1011.7 in WSW 29.6 mph 29.6 mph 75 % 0.0 in
16:47 16.2 °F 11.7 °F 1011.7 in SW 29.6 mph 29.6 mph 75 % 0.0 in
16:48 16.2 °F 11.7 °F 1011.7 in WSW 38.9 mph 38.9 mph 75 % 0.0 in
16:54 16.2 °F 11.7 °F 1011.7 in West 29.6 mph 29.6 mph 75 % 0.0 in
16:59 16.1 °F 11.7 °F 1011.7 in WSW 33.3 mph 33.3 mph 75 % 0.0 in
17:01 16.1 °F 11.7 °F 1011.7 in WSW 31.5 mph 31.5 mph 75 % 0.0 in
17:06 16.2 °F 11.7 °F 1011.4 in West 33.8 mph 33.8 mph 75 % 0.0 in
17:11 16.2 °F 11.6 °F 1011.4 in West 33.8 mph 33.8 mph 74 % 0.0 in
17:16 16.4 °F 11.6 °F 1011.7 in West 31.5 mph 31.5 mph 73 % 0.0 in
17:21 16.4 °F 11.6 °F 1011.4 in WSW 31.5 mph 31.5 mph 73 % 0.0 in
17:27 16.3 °F 11.4 °F 1011.4 in West 27.8 mph 27.8 mph 73 % 0.0 in
17:28 16.3 °F 11.4 °F 1011.4 in WSW 24.1 mph 24.1 mph 73 % 0.0 in
17:34 16.2 °F 11.4 °F 1011.4 in West 27.8 mph 27.8 mph 73 % 0.0 in
17:36 16.2 °F 11.4 °F 1011.4 in West 22.2 mph 22.2 mph 73 % 0.0 in
17:41 16.2 °F 11.1 °F 1011.4 in WSW 31.5 mph 31.5 mph 72 % 0.0 in
17:43 16.2 °F 11.1 °F 1011.4 in West 22.2 mph 22.2 mph 72 % 0.0 in
17:48 16.2 °F 10.9 °F 1011.4 in West 31.5 mph 31.5 mph 71 % 0.0 in
17:52 16.2 °F 10.9 °F 1011.1 in West 25.9 mph 25.9 mph 71 % 0.0 in
17:54 16.2 °F 10.9 °F 1011.4 in WSW 33.3 mph 33.3 mph 71 % 0.0 in
17:59 16.1 °F 10.8 °F 1011.1 in WNW 27.8 mph 27.8 mph 71 % 0.0 in
18:01 16.1 °F 10.8 °F 1011.1 in West 24.1 mph 24.1 mph 71 % 0.0 in
18:05 16.1 °F 10.6 °F 1011.1 in WSW 22.2 mph 22.2 mph 70 % 0.0 in
18:10 16.1 °F 10.6 °F 1011.1 in West 13.0 mph 13.0 mph 70 % 0.0 in
18:12 16.1 °F 10.6 °F 1011.1 in West 18.5 mph 18.5 mph 70 % 0.0 in
18:18 16.0 °F 10.6 °F 1011.1 in WSW 11.3 mph 11.3 mph 70 % 0.0 in
18:23 15.9 °F 10.7 °F 1011.1 in WSW 24.1 mph 24.1 mph 71 % 0.0 in
18:27 15.8 °F 10.6 °F 1011.1 in West 14.8 mph 14.8 mph 71 % 0.0 in
18:32 15.8 °F 10.6 °F 1011.1 in West 18.5 mph 18.5 mph 71 % 0.0 in
18:37 15.8 °F 10.6 °F 1010.7 in West 22.2 mph 22.2 mph 71 % 0.0 in
18:40 15.8 °F 10.5 °F 1010.7 in West 9.7 mph 22.5 mph 71 % 0.0 in
18:45 15.7 °F 10.4 °F 1010.7 in West 22.2 mph 22.2 mph 71 % 0.0 in
18:50 15.6 °F 10.6 °F 1010.7 in West 24.1 mph 24.1 mph 72 % 0.0 in
18:55 15.7 °F 10.4 °F 1010.4 in West 25.9 mph 25.9 mph 71 % 0.0 in
19:03 15.7 °F 10.4 °F 1010.7 in WSW 22.2 mph 22.2 mph 71 % 0.0 in
19:04 15.7 °F 10.4 °F 1010.4 in West 22.2 mph 22.2 mph 71 % 0.0 in
19:09 15.7 °F 10.8 °F 1010.4 in WSW 27.8 mph 27.8 mph 73 % 0.0 in
19:12 15.6 °F 10.8 °F 1010.7 in WSW 31.5 mph 31.5 mph 73 % 0.0 in
19:13 15.6 °F 11.0 °F 1010.7 in WSW 31.5 mph 31.5 mph 74 % 0.0 in
19:18 15.6 °F 10.7 °F 1010.7 in WNW 42.6 mph 42.6 mph 73 % 0.0 in
19:19 15.6 °F 10.7 °F 1010.4 in West 37.0 mph 37.0 mph 73 % 0.0 in
19:20 15.6 °F 10.7 °F 1010.4 in WSW 30.6 mph 30.6 mph 73 % 0.0 in
19:25 15.6 °F 10.7 °F 1010.4 in West 18.5 mph 18.5 mph 73 % 0.0 in
19:27 15.6 °F 10.7 °F 1010.4 in West 25.9 mph 25.9 mph 73 % 0.0 in
19:30 15.6 °F 10.7 °F 1010.4 in WSW 22.2 mph 22.2 mph 73 % 0.0 in
19:32 15.6 °F 10.7 °F 1010.4 in WSW 25.9 mph 25.9 mph 73 % 0.0 in
19:37 15.5 °F 10.7 °F 1010.4 in WSW 24.1 mph 24.1 mph 73 % 0.0 in
19:38 15.5 °F 10.7 °F 1010.4 in West 22.2 mph 22.2 mph 73 % 0.0 in
19:43 15.4 °F 10.8 °F 1010.4 in West 18.5 mph 18.5 mph 74 % 0.0 in
19:44 15.4 °F 10.8 °F 1010.4 in West 20.4 mph 20.4 mph 74 % 0.0 in
19:49 15.3 °F 10.7 °F 1010.4 in West 20.4 mph 20.4 mph 74 % 0.0 in
19:50 15.3 °F 10.7 °F 1010.4 in West 20.4 mph 20.4 mph 74 % 0.0 in
19:55 15.3 °F 10.7 °F 1010.4 in WSW 17.7 mph 17.7 mph 74 % 0.0 in
19:59 15.3 °F 10.7 °F 1010.0 in West 24.1 mph 24.1 mph 74 % 0.0 in
20:04 15.3 °F 10.7 °F 1010.0 in West 16.7 mph 16.7 mph 74 % 0.0 in
20:09 15.3 °F 10.7 °F 1010.0 in WSW 22.2 mph 22.2 mph 74 % 0.0 in
20:14 15.3 °F 10.7 °F 1010.0 in West 18.5 mph 18.5 mph 74 % 0.0 in
20:15 15.3 °F 10.7 °F 1010.0 in WSW 17.7 mph 17.7 mph 74 % 0.0 in
20:16 15.3 °F 10.7 °F 1010.0 in WSW 19.3 mph 19.3 mph 74 % 0.0 in
20:21 15.3 °F 10.7 °F 1010.0 in West 18.5 mph 18.5 mph 74 % 0.0 in
20:26 15.3 °F 10.7 °F 1010.0 in West 18.5 mph 18.5 mph 74 % 0.0 in
20:27 15.3 °F 10.7 °F 1010.0 in WSW 18.5 mph 18.5 mph 74 % 0.0 in
20:31 15.3 °F 10.9 °F 1010.0 in WSW 13.0 mph 13.0 mph 75 % 0.0 in
20:33 15.3 °F 10.9 °F 1010.0 in West 14.8 mph 14.8 mph 75 % 0.0 in
20:38 15.3 °F 10.9 °F 1010.0 in West 18.5 mph 18.5 mph 75 % 0.0 in
20:39 15.3 °F 10.9 °F 1009.7 in WSW 19.3 mph 19.3 mph 75 % 0.0 in
20:44 15.3 °F 10.9 °F 1009.7 in WSW 18.5 mph 18.5 mph 75 % 0.0 in
20:48 15.3 °F 10.9 °F 1009.7 in WSW 18.5 mph 18.5 mph 75 % 0.0 in
20:53 15.3 °F 11.1 °F 1009.7 in WSW 18.5 mph 18.5 mph 76 % 0.0 in
20:58 15.3 °F 11.1 °F 1009.4 in West 18.5 mph 18.5 mph 76 % 0.0 in
20:59 15.3 °F 11.1 °F 1009.4 in WSW 18.5 mph 18.5 mph 76 % 0.0 in
21:06 15.3 °F 11.1 °F 1009.4 in SW 16.7 mph 16.7 mph 76 % 0.0 in
21:12 15.3 °F 11.1 °F 1009.4 in WSW 13.0 mph 13.0 mph 76 % 0.0 in
21:15 15.2 °F 11.2 °F 1009.4 in West 11.3 mph 14.5 mph 77 % 0.0 in
21:17 15.2 °F 11.2 °F 1009.4 in West 9.3 mph 9.3 mph 77 % 0.0 in
21:20 15.2 °F 11.2 °F 1009.4 in West 13.0 mph 13.0 mph 77 % 0.0 in
21:23 15.2 °F 11.2 °F 1009.4 in West 13.0 mph 13.0 mph 77 % 0.0 in
21:27 15.2 °F 11.2 °F 1009.4 in WSW 14.8 mph 14.8 mph 77 % 0.0 in
21:33 15.2 °F 11.2 °F 1009.4 in WSW 13.0 mph 13.0 mph 77 % 0.0 in
21:35 15.2 °F 11.4 °F 1009.4 in WSW 14.8 mph 14.8 mph 78 % 0.0 in
21:40 15.3 °F 11.8 °F 1009.4 in WSW 12.9 mph 12.9 mph 80 % 0.0 in
21:45 15.2 °F 11.8 °F 1009.0 in WSW 18.5 mph 18.5 mph 80 % 0.0 in
21:50 15.1 °F 11.7 °F 1009.0 in WSW 20.4 mph 20.4 mph 80 % 0.0 in
21:53 15.1 °F 11.9 °F 1009.0 in West 25.9 mph 25.9 mph 81 % 0.0 in
21:58 15.1 °F 11.9 °F 1009.0 in WSW 27.8 mph 27.8 mph 81 % 0.0 in
21:59 15.1 °F 11.9 °F 1009.0 in WSW 25.9 mph 25.9 mph 81 % 0.0 in
22:01 15.1 °F 11.8 °F 1009.4 in WSW 31.5 mph 31.5 mph 81 % 0.0 in
22:06 15.1 °F 11.6 °F 1009.0 in WSW 24.1 mph 24.1 mph 80 % 0.0 in
22:09 15.1 °F 11.6 °F 1009.0 in SW 25.9 mph 25.9 mph 80 % 0.0 in
22:10 15.1 °F 11.8 °F 1009.0 in West 25.9 mph 25.9 mph 81 % 0.0 in
22:14 15.1 °F 11.9 °F 1008.7 in WSW 22.2 mph 22.2 mph 81 % 0.0 in
22:19 15.1 °F 11.8 °F 1008.7 in WSW 24.1 mph 24.1 mph 81 % 0.0 in
22:21 15.1 °F 11.8 °F 1008.7 in WSW 22.2 mph 22.2 mph 81 % 0.0 in
22:22 15.1 °F 11.8 °F 1008.7 in WSW 22.2 mph 22.2 mph 81 % 0.0 in
22:27 15.0 °F 11.8 °F 1008.7 in WSW 22.2 mph 22.2 mph 81 % 0.0 in
22:30 15.0 °F 11.8 °F 1008.4 in WSW 24.1 mph 24.1 mph 81 % 0.0 in
22:31 15.0 °F 11.8 °F 1008.4 in WSW 24.1 mph 24.1 mph 81 % 0.0 in
22:36 14.9 °F 11.7 °F 1008.4 in WSW 18.5 mph 18.5 mph 81 % 0.0 in
22:37 14.9 °F 11.7 °F 1008.4 in West 16.7 mph 16.7 mph 81 % 0.0 in
22:42 14.9 °F 11.7 °F 1008.4 in WSW 18.5 mph 18.5 mph 81 % 0.0 in
22:46 14.9 °F 11.5 °F 1008.4 in WSW 24.1 mph 24.1 mph 80 % 0.0 in
22:49 14.9 °F 11.5 °F 1008.4 in WSW 22.2 mph 22.2 mph 80 % 0.0 in
22:54 14.9 °F 11.7 °F 1008.4 in West 22.2 mph 22.2 mph 81 % 0.0 in
22:55 15.0 °F 11.8 °F 1008.4 in WSW 22.2 mph 22.2 mph 81 % 0.0 in
22:59 15.0 °F 11.8 °F 1008.0 in West 22.2 mph 22.2 mph 81 % 0.0 in
23:02 15.0 °F 11.8 °F 1008.0 in West 22.2 mph 22.2 mph 81 % 0.0 in
23:07 14.9 °F 11.7 °F 1008.0 in WSW 27.4 mph 27.4 mph 81 % 0.0 in
23:12 14.9 °F 11.7 °F 1008.0 in West 25.9 mph 25.9 mph 81 % 0.0 in
23:17 14.9 °F 11.7 °F 1008.0 in WSW 22.2 mph 22.2 mph 81 % 0.0 in
23:18 14.9 °F 11.7 °F 1008.0 in West 19.3 mph 19.3 mph 81 % 0.0 in
23:23 14.9 °F 11.7 °F 1007.7 in WSW 24.1 mph 24.1 mph 81 % 0.0 in
23:28 15.0 °F 11.8 °F 1007.7 in West 25.9 mph 25.9 mph 81 % 0.0 in
23:31 14.9 °F 11.5 °F 1007.7 in WNW 25.9 mph 25.9 mph 80 % 0.0 in
23:35 14.9 °F 11.5 °F 1007.7 in WSW 27.4 mph 27.4 mph 80 % 0.0 in
23:37 14.9 °F 11.5 °F 1007.7 in WSW 30.6 mph 30.6 mph 80 % 0.0 in
23:41 14.9 °F 11.7 °F 1007.3 in WSW 30.6 mph 30.6 mph 81 % 0.0 in
23:46 14.9 °F 11.7 °F 1007.3 in WSW 27.8 mph 27.8 mph 81 % 0.0 in
23:50 14.9 °F 11.7 °F 1007.3 in WSW 22.5 mph 32.2 mph 81 % 0.0 in
23:55 14.9 °F 11.5 °F 1007.3 in West 31.5 mph 31.5 mph 80 % 0.0 in
23:56 14.9 °F 11.5 °F 1007.3 in West 31.5 mph 31.5 mph 80 % 0.0 in
Puerto Banus, Marbella
Elogios de Weather Underground - 2 mb

Guión original por  Jim McMurry - jmcmurry@mwt.net Adaptado para la plantilla por  Wim van der Kuil - Leuven-Template.eu

Usted encontrará nuestra información del tiempo también en:

Weather Underground

Iberian Peninsula Weather Network